Flag for U.S.A. Weather past 2 weeks in Newark, New Jersey, U.S.A.

Now
20 °F

Passing clouds.


Feels Like: 20 °F
Forecast: 14 / 30 °F
Wind: No wind

Location: Newark International Airport

Current Time: Mar 1, 2015 at 2:35:53 AM

Latest Report: Mar 1, 2015 at 1:51 AM


Visibility: 10 mi

Pressure: 30.72 "Hg

Humidity: 52%

Dew point: 5 °F

Location of NewarkLocation

Historic Weather in Newark — Graph

°F

Newark temperature yesterday

Maximum temperature yesterday: 30 °F (at 2:51 PM)
Minimum temperature yesterday: 13 °F (at 6:51 AM)
Average temperature yesterday: 22 °F

Past Weeks' High & Low Weather Summary

 TemperatureHumidityPressure
High42 °F (Feb 22, 3:51 PM)96% (Feb 21, 6:51 PM)30.83 "Hg (Feb 21, 6:51 PM)
Low1 °F (Feb 20, 5:51 AM)27% (Feb 28, 3:51 PM)29.46 "Hg (Feb 14, 11:51 PM)
Average21 °F55%30.11 "Hg
* Reported Feb 14 12:51 AM — Mar 1 12:51 AM, Newark, Weather by CustomWeather, © 2015

Note: Actual official high and low records may vary slightly from our data, if they occured in-between our weather recording intervals... More about our weather records

Advertising

Newark weather history for previous 24 hours

 ConditionsComfort  
Time TempWeatherWind HumidityBarometerVisibility
12:51 AM
Sun, Mar 1
22 °FPassing clouds.No wind42%30.72 "Hg10 mi
11:51 PM
Sat, Feb 28
22 °FPassing clouds.No wind44%30.73 "Hg10 mi
10:51 PM23 °FPassing clouds.5 mph42%30.76 "Hg10 mi
9:51 PM24 °FPassing clouds.5 mph40%30.76 "Hg10 mi
8:51 PM25 °FPassing clouds.6 mph37%30.76 "Hg10 mi
7:51 PM24 °FPassing clouds.6 mph44%30.75 "Hg10 mi
6:51 PM25 °FPassing clouds.8 mph46%30.75 "Hg10 mi
5:51 PM29 °FPassing clouds.3 mph30%30.73 "Hg10 mi
4:51 PM30 °FPassing clouds.No wind27%30.74 "Hg10 mi
3:51 PM30 °FScattered clouds.3 mph27%30.73 "Hg10 mi
2:51 PM30 °FScattered clouds.6 mph29%30.75 "Hg10 mi
1:51 PM28 °FPassing clouds.6 mph34%30.77 "Hg10 mi
12:51 PM26 °FScattered clouds.3 mph37%30.79 "Hg10 mi
11:51 AM24 °FScattered clouds.5 mph38%30.82 "Hg10 mi
10:51 AM22 °FScattered clouds.3 mph38%30.82 "Hg10 mi
9:51 AM20 °FPassing clouds.6 mph41%30.82 "Hg10 mi
8:51 AM18 °FPassing clouds.6 mph43%30.83 "Hg10 mi
7:51 AM15 °FPassing clouds.10 mph46%30.81 "Hg10 mi
6:51 AM13 °FPassing clouds.10 mph51%30.78 "Hg10 mi
5:51 AM14 °FPassing clouds.7 mph47%30.76 "Hg10 mi
4:51 AM15 °FPassing clouds.9 mph44%30.73 "Hg10 mi
3:51 AM15 °FPassing clouds.13 mph42%30.69 "Hg10 mi
2:51 AM17 °FPassing clouds.7 mph45%30.68 "Hg10 mi
Weather by CustomWeather, © 2015

See weather overviewHow to use our weather pages